Location: Glencliff
(36.1226°N, 86.7183°W)
Time: 18:45:30
(UTC+00:00)

Meteor 1-19 Rocket - Pass Details

Date: 25 August 2019
Orbit: 819 x 915 km, 81.2° (Epoch: 22 September)

Event Time Altitude Azimuth Distance (km) Brightness Sun altitude
Rises 01:28:46 0° 353° (N) 3,463 7.8 -12.8°
Reaches altitude 10° 01:31:12 10° 355° (N) 2,536 7.1 -13.3°
Maximum altitude 01:36:59 76° 81° (E) 921 4.2 -14.4°
Drops below altitude 10° 01:42:52 10° 167° (SSE) 2,577 6.4 -15.4°
Enters shadow 01:43:37 - 168° (SSE) 2,861 6.6 -15.6°
